Overview Statistics Trail Chart Weather Telemetry Raw packets
 

This is the latest recevied weather packets stored in our database for station/object W5ITZ. If no packets are shown the sender has not sent any weather packets the latest 10 day(s).

<< 94 95 96 97 98 99 100 >>
Time Temp. Humidity Pressure Rain* Wind** Luminosity Snow
1787522008 36.11° C 44% 1014.6 hPa 0 mm - 506 W/m² -
1787521706 36.11° C 43% 1014.6 hPa 0 mm - 525 W/m² -
1787521396 35.56° C 44% 1014.6 hPa 0 mm - 542 W/m² -
1787521096 35.56° C 45% 1014.6 hPa 0 mm - 562 W/m² -
1787520791 35.56° C 45% 1014.6 hPa 0 mm - 579 W/m² -
1787520487 35.56° C 43% 1014.5 hPa 0 mm - 595 W/m² -
1787520183 35.56° C 46% 1014.7 hPa 0 mm - 617 W/m² -
1787519878 36.11° C 44% 1014.7 hPa 0 mm - 631 W/m² -
1787519573 36.11° C 44% 1014.8 hPa 0 mm - 646 W/m² -
1787519273 36.67° C 43% 1014.7 hPa 0 mm - 669 W/m² -
1787518969 36.11° C 44% 1014.8 hPa 0 mm - 690 W/m² -
1787518664 36.11° C 43% 1014.8 hPa 0 mm - 703 W/m² -
1787518359 36.11° C 41% 1014.7 hPa 0 mm - 719 W/m² -
1787518054 36.67° C 43% 1014.9 hPa 0 mm - 735 W/m² -
1787517750 36.11° C 42% 1015 hPa 0 mm - 749 W/m² -
1787517446 36.11° C 44% 1014.9 hPa 0 mm - 757 W/m² -
1787517142 36.11° C 44% 1015.2 hPa 0 mm - 770 W/m² -
1787516841 36.11° C 44% 1015 hPa 0 mm - 789 W/m² -
1787516537 36.67° C 42% 1015.2 hPa 0 mm - 797 W/m² -
1787516236 36.11° C 43% 1015.1 hPa 0 mm - 816 W/m² -
1787515931 36.11° C 44% 1015.3 hPa 0 mm - 825 W/m² -
1787515628 36.11° C 44% 1014.8 hPa 0 mm - 834 W/m² -
1787515322 36.67° C 44% 1015.6 hPa 0 mm - 829 W/m² -
1787515017 36.67° C 45% 1015.3 hPa 0 mm - 855 W/m² -
1787514715 36.67° C 44% 1015.5 hPa 0 mm - 873 W/m² -

* Rain latest hour (hover to see other rain measurements)
** Current wind speed in m/s (hover to see current wind gust speed)